Location: Ostrava
(49.8330°N, 18.2830°E)
Time: 22:24:45
(UTC+02:00)

Iridium 39 - Visible Passes

Search period start: 20 April 2018 00:00
Search period end: 30 April 2018 00:00
Orbit: 724 x 752 km, 86.4° (Epoch: 20 April)

Date Brightness Start Highest point End Pass type
(mag) Time Alt. Az. Time Alt. Az. Time Alt. Az.
20 Apr 7.8 02:35:37 13° SE 02:39:00 25° E 02:43:02 10° NNE visible
20 Apr 6.3 04:15:16 18° SSW 04:18:38 46° W 04:23:26 10° N visible
21 Apr 8.5 01:52:32 10° E 01:54:17 12° ENE 01:56:03 10° NE visible
21 Apr 5.9 03:30:18 24° S 03:33:18 81° E 03:38:18 10° N visible
22 Apr 7.1 02:45:20 20° SE 02:48:14 37° E 02:52:47 10° NNE visible
22 Apr 6.8 04:24:58 16° SW 04:28:11 31° WNW 04:32:37 10° NNW visible
23 Apr 8.2 02:00:21 11° ESE 02:03:23 18° ENE 02:06:39 10° NE visible
23 Apr 5.9 03:40:00 26° SSW 03:42:43 67° W 03:47:42 10° N visible
24 Apr 6.4 02:55:00 27° SSE 02:57:30 56° E 03:02:23 10° NNE visible
24 Apr 7.3 04:34:38 13° WSW 04:37:47 22° WNW 04:41:37 10° NNW visible
25 Apr 7.7 02:09:58 17° ESE 02:12:32 26° E 02:16:38 10° NNE visible
25 Apr 6.3 03:49:37 24° SW 03:52:11 45° W 03:56:59 10° N visible
26 Apr 8.4 01:25:50 10° E 01:27:49 12° ENE 01:29:47 10° NE visible
26 Apr 5.9 03:04:35 33° S 03:06:51 84° E 03:11:53 10° N visible
26 Apr 7.7 04:44:40 10° WSW 04:47:29 15° WNW 04:50:19 10° NNW visible
27 Apr 7.0 02:19:33 25° SE 02:21:46 38° E 02:26:22 10° NNE visible
27 Apr 6.9 03:59:12 20° WSW 04:01:44 30° WNW 04:06:09 10° NNW visible
28 Apr 8.1 01:34:30 13° ESE 01:36:55 18° ENE 01:40:17 10° NE visible
28 Apr 5.9 03:14:09 33° SSW 03:16:16 65° W 03:21:16 10° N visible
29 Apr 6.3 02:29:05 34° SSE 02:31:02 58° E 02:35:58 10° N visible
29 Apr 7.4 04:08:43 14° WSW 04:11:22 21° WNW 04:15:09 10° NNW visible
